SDG071 LIPZ-LICC

Flight info

Callsign SDG071
Flight time 1h 29m
Altitude 33000
Route CHI DCT ALAXI DCT AMANO DCT VAKOR DCT PELEN DCT UXUTA
Aircraft A20N/M-SDE2E3FGHIRWXY/LB1

Departure

Time 2026-05-05 19:57
Airport Venice Marco Polo Airport (LIPZ)

Arrival

Time 2026-05-05 21:27
Airport Catania-Fontanarossa Airport (LICC)
Time Latitude Longitude Altitude Speed Heading
2026-05-05 19:40 45.50295 12.34162 18 ft 0 kts 339°
2026-05-05 19:42 45.50284 12.34168 18 ft 2 kts 339°
2026-05-05 19:42 45.50269 12.34176 19 ft 2 kts 338°
2026-05-05 19:43 45.50254 12.34186 20 ft 2 kts 336°
2026-05-05 19:43 45.50239 12.34195 22 ft 2 kts 336°
2026-05-05 19:43 45.50223 12.34204 19 ft 2 kts 329°
2026-05-05 19:43 45.50215 12.34222 19 ft 2 kts 262°
2026-05-05 19:44 45.50217 12.34246 18 ft 2 kts 255°
2026-05-05 19:44 45.50225 12.34265 19 ft 2 kts 220°
2026-05-05 19:44 45.50230 12.34270 20 ft 0 kts 220°
2026-05-05 19:45 45.50228 12.34268 20 ft 2 kts 220°
2026-05-05 19:45 45.50206 12.34242 19 ft 7 kts 220°
2026-05-05 19:46 45.50160 12.34184 17 ft 10 kts 223°
2026-05-05 19:46 45.50104 12.34110 16 ft 14 kts 223°
2026-05-05 19:46 45.50025 12.34006 15 ft 15 kts 221°
2026-05-05 19:46 45.49948 12.33906 15 ft 16 kts 220°
2026-05-05 19:47 45.49863 12.33794 15 ft 17 kts 224°
2026-05-05 19:47 45.49847 12.33772 16 ft 1 kts 224°
2026-05-05 19:47 45.49835 12.33756 16 ft 4 kts 224°
2026-05-05 19:47 45.49807 12.33722 17 ft 7 kts 218°
2026-05-05 19:48 45.49759 12.33669 18 ft 10 kts 212°
2026-05-05 19:48 45.49682 12.33604 17 ft 16 kts 217°
2026-05-05 19:48 45.49633 12.33543 17 ft 0 kts 220°
2026-05-05 19:51 45.49631 12.33542 18 ft 2 kts 220°
2026-05-05 19:51 45.49602 12.33511 18 ft 8 kts 205°
2026-05-05 19:51 45.49551 12.33541 17 ft 9 kts 133°
2026-05-05 19:51 45.49519 12.33590 18 ft 1 kts 133°
2026-05-05 19:52 45.49508 12.33607 18 ft 4 kts 133°
2026-05-05 19:52 45.49502 12.33616 18 ft 0 kts 132°
2026-05-05 19:55 45.49501 12.33618 18 ft 1 kts 132°
2026-05-05 19:55 45.49491 12.33633 19 ft 5 kts 132°
2026-05-05 19:56 45.49442 12.33712 17 ft 11 kts 132°
2026-05-05 19:56 45.49434 12.33793 16 ft 9 kts 44°
2026-05-05 19:56 45.49524 12.33918 14 ft 42 kts 43°
2026-05-05 19:56 45.49750 12.34209 11 ft 88 kts 42°
2026-05-05 19:57 45.50594 12.35276 29 ft 152 kts 40°
2026-05-05 19:57 45.51131 12.35949 484 ft 153 kts 41°
2026-05-05 19:57 45.51941 12.37038 1180 ft 168 kts 47°
2026-05-05 19:57 45.52750 12.38283 1969 ft 173 kts 51°
2026-05-05 19:58 45.53432 12.39771 2348 ft 187 kts 73°
2026-05-05 19:58 45.53549 12.41670 2646 ft 204 kts 100°
2026-05-05 19:58 45.53291 12.43774 3008 ft 218 kts 102°
2026-05-05 19:58 45.53068 12.45859 3728 ft 215 kts 99°
2026-05-05 19:59 45.52864 12.48001 4359 ft 220 kts 99°
2026-05-05 19:59 45.52656 12.50207 5031 ft 227 kts 100°
2026-05-05 19:59 45.52104 12.52291 5770 ft 226 kts 131°
2026-05-05 19:59 45.50883 12.53629 6556 ft 222 kts 165°
2026-05-05 20:00 45.49412 12.53857 7411 ft 213 kts 193°
2026-05-05 20:00 45.47916 12.53471 8114 ft 227 kts 194°
2026-05-05 20:00 45.46288 12.53051 8645 ft 248 kts 194°
2026-05-05 20:00 45.44516 12.52611 9152 ft 269 kts 193°
2026-05-05 20:01 45.42635 12.52164 10011 ft 275 kts 193°
2026-05-05 20:01 45.40702 12.51710 10653 ft 291 kts 193°
2026-05-05 20:01 45.38648 12.51223 10996 ft 314 kts 192°
2026-05-05 20:01 45.36425 12.50697 11531 ft 327 kts 192°
2026-05-05 20:02 45.34199 12.49998 12407 ft 328 kts 199°
2026-05-05 20:02 45.32056 12.48842 13262 ft 331 kts 207°
2026-05-05 20:02 45.30032 12.47254 14074 ft 334 kts 213°
2026-05-05 20:02 45.28054 12.45577 14851 ft 336 kts 212°
2026-05-05 20:03 45.26026 12.43873 15646 ft 339 kts 212°
2026-05-05 20:03 45.23980 12.42165 16426 ft 342 kts 212°
2026-05-05 20:03 45.21921 12.40449 17185 ft 345 kts 213°
2026-05-05 20:03 45.19835 12.38713 17936 ft 348 kts 213°
2026-05-05 20:04 45.17758 12.36985 18622 ft 351 kts 213°
2026-05-05 20:04 45.15639 12.35223 19251 ft 354 kts 213°
2026-05-05 20:04 45.13525 12.33466 19866 ft 358 kts 213°
2026-05-05 20:04 45.11358 12.31667 20492 ft 361 kts 213°
2026-05-05 20:05 45.09126 12.29986 21108 ft 367 kts 204°
2026-05-05 20:05 45.06623 12.29087 21711 ft 376 kts 189°
2026-05-05 20:05 45.03974 12.29185 22297 ft 387 kts 174°
2026-05-05 20:05 45.01355 12.30038 22887 ft 393 kts 171°
2026-05-05 20:06 44.98672 12.30962 23472 ft 396 kts 171°
2026-05-05 20:06 44.96007 12.31876 23957 ft 400 kts 171°
2026-05-05 20:06 44.93285 12.32803 24436 ft 403 kts 171°
2026-05-05 20:06 44.90535 12.33734 24912 ft 407 kts 172°
2026-05-05 20:07 44.87797 12.34657 25361 ft 410 kts 172°
2026-05-05 20:07 44.85006 12.35596 25819 ft 413 kts 172°
2026-05-05 20:07 44.82180 12.36545 26242 ft 417 kts 172°
2026-05-05 20:07 44.79336 12.37500 26679 ft 420 kts 172°
2026-05-05 20:08 44.76515 12.38445 27089 ft 423 kts 172°
2026-05-05 20:08 44.73634 12.39410 27507 ft 426 kts 173°
2026-05-05 20:08 44.70723 12.40383 27896 ft 430 kts 173°
2026-05-05 20:08 44.67795 12.41361 28283 ft 433 kts 173°
2026-05-05 20:09 44.64857 12.42341 28654 ft 436 kts 173°
2026-05-05 20:09 44.61889 12.43330 29013 ft 439 kts 173°
2026-05-05 20:09 44.58904 12.44324 29361 ft 442 kts 173°
2026-05-05 20:09 44.55935 12.45311 29727 ft 444 kts 173°
2026-05-05 20:10 44.52910 12.46316 30063 ft 447 kts 173°
2026-05-05 20:10 44.49869 12.47325 30400 ft 449 kts 173°
2026-05-05 20:10 44.46820 12.48336 30755 ft 450 kts 174°
2026-05-05 20:10 44.43801 12.49336 31099 ft 452 kts 174°
2026-05-05 20:11 44.40733 12.50352 31514 ft 451 kts 174°
2026-05-05 20:11 44.37685 12.51361 31967 ft 450 kts 174°
2026-05-05 20:11 44.34641 12.52367 32423 ft 448 kts 174°
2026-05-05 20:11 44.31614 12.53366 32827 ft 446 kts 174°
2026-05-05 20:12 44.28595 12.54360 32971 ft 445 kts 174°
2026-05-05 20:12 44.22590 12.56331 32984 ft 445 kts 174°
2026-05-05 20:13 44.16540 12.58313 33008 ft 446 kts 174°
2026-05-05 20:13 44.10525 12.60282 33019 ft 446 kts 174°
2026-05-05 20:14 44.04469 12.62259 33021 ft 447 kts 174°
2026-05-05 20:14 43.98385 12.64239 33024 ft 448 kts 174°
2026-05-05 20:15 43.92334 12.66205 33023 ft 449 kts 174°
2026-05-05 20:15 43.86226 12.68188 33016 ft 450 kts 174°
2026-05-05 20:16 43.80114 12.70167 33016 ft 451 kts 174°
2026-05-05 20:16 43.74036 12.72132 32998 ft 449 kts 174°
2026-05-05 20:17 43.67948 12.74095 32998 ft 450 kts 174°
2026-05-05 20:17 43.61859 12.76054 32998 ft 449 kts 174°
2026-05-05 20:18 43.55786 12.78004 33004 ft 449 kts 174°
2026-05-05 20:18 43.49708 12.79954 33005 ft 448 kts 174°
2026-05-05 20:19 43.43623 12.81901 33002 ft 447 kts 174°
2026-05-05 20:19 43.37601 12.83823 33005 ft 446 kts 174°
2026-05-05 20:20 43.31540 12.85753 33003 ft 446 kts 174°
2026-05-05 20:20 43.25518 12.87666 33019 ft 448 kts 174°
2026-05-05 20:21 43.19430 12.89598 33037 ft 448 kts 174°
2026-05-05 20:21 43.13379 12.91518 33030 ft 448 kts 174°
2026-05-05 20:22 43.07293 12.93440 33038 ft 447 kts 174°
2026-05-05 20:22 43.01254 12.95344 33038 ft 448 kts 174°
2026-05-05 20:23 42.95181 12.97257 33030 ft 446 kts 174°
2026-05-05 20:23 42.89161 12.99148 33031 ft 446 kts 175°
2026-05-05 20:24 42.83113 13.01042 33018 ft 445 kts 175°
2026-05-05 20:24 42.77059 13.02935 33047 ft 447 kts 174°
2026-05-05 20:25 42.70983 13.04832 33056 ft 448 kts 174°
2026-05-05 20:25 42.64938 13.06715 33057 ft 448 kts 174°
2026-05-05 20:26 42.58835 13.08613 33054 ft 448 kts 174°
2026-05-05 20:26 42.52780 13.10493 33052 ft 447 kts 174°
2026-05-05 20:27 42.46746 13.12361 33033 ft 447 kts 174°
2026-05-05 20:27 42.40674 13.14237 33057 ft 449 kts 174°
2026-05-05 20:28 42.34595 13.16110 33065 ft 449 kts 174°
2026-05-05 20:28 42.28467 13.17996 33061 ft 450 kts 174°
2026-05-05 20:29 42.22334 13.19882 33065 ft 451 kts 174°
2026-05-05 20:29 42.16246 13.21749 33072 ft 452 kts 174°
2026-05-05 20:30 42.10074 13.23637 33078 ft 454 kts 174°
2026-05-05 20:30 42.03915 13.25519 33073 ft 453 kts 174°
2026-05-05 20:31 41.97806 13.27380 33071 ft 453 kts 174°
2026-05-05 20:31 41.91637 13.29255 33080 ft 454 kts 174°
2026-05-05 20:32 41.85511 13.31115 33078 ft 454 kts 174°
2026-05-05 20:32 41.79332 13.32987 33086 ft 454 kts 173°
2026-05-05 20:33 41.73148 13.34818 33074 ft 451 kts 176°
2026-05-05 20:33 41.67004 13.36055 33064 ft 448 kts 178°
2026-05-05 20:34 41.60808 13.37296 33078 ft 452 kts 177°
2026-05-05 20:34 41.54572 13.38547 33084 ft 452 kts 177°
2026-05-05 20:35 41.48342 13.39793 33082 ft 453 kts 177°
2026-05-05 20:35 41.42131 13.41031 33071 ft 453 kts 177°
2026-05-05 20:36 41.35878 13.42277 33069 ft 452 kts 177°
2026-05-05 20:36 41.29663 13.43510 33069 ft 452 kts 177°
2026-05-05 20:37 41.23459 13.44740 33075 ft 453 kts 177°
2026-05-05 20:37 41.17220 13.45973 33067 ft 453 kts 177°
2026-05-05 20:38 41.10970 13.47207 33069 ft 453 kts 177°
2026-05-05 20:38 41.04773 13.48427 33067 ft 453 kts 177°
2026-05-05 20:39 40.98537 13.49653 33063 ft 453 kts 177°
2026-05-05 20:39 40.92279 13.50882 33065 ft 454 kts 177°
2026-05-05 20:40 40.86027 13.52106 33066 ft 454 kts 177°
2026-05-05 20:40 40.79774 13.53329 33071 ft 454 kts 176°
2026-05-05 20:41 40.73539 13.54545 33073 ft 455 kts 176°
2026-05-05 20:41 40.67268 13.55767 33069 ft 455 kts 176°
2026-05-05 20:42 40.60980 13.56989 33072 ft 456 kts 176°
2026-05-05 20:42 40.54730 13.58202 33077 ft 456 kts 176°
2026-05-05 20:43 40.48438 13.59420 33077 ft 456 kts 176°
2026-05-05 20:43 40.42155 13.60635 33081 ft 456 kts 176°
2026-05-05 20:44 40.35874 13.61847 33081 ft 456 kts 176°
2026-05-05 20:44 40.29589 13.63057 33079 ft 456 kts 176°
2026-05-05 20:45 40.20201 13.64861 33077 ft 455 kts 176°
2026-05-05 20:45 40.14984 13.65861 33073 ft 455 kts 176°
2026-05-05 20:46 40.08711 13.67062 33069 ft 454 kts 176°
2026-05-05 20:46 40.02496 13.68249 33069 ft 454 kts 176°
2026-05-05 20:47 39.96236 13.69442 33063 ft 453 kts 175°
2026-05-05 20:47 39.89993 13.70631 33063 ft 453 kts 175°
2026-05-05 20:48 39.83786 13.71809 33061 ft 452 kts 175°
2026-05-05 20:48 39.77539 13.72994 33059 ft 452 kts 175°
2026-05-05 20:49 39.71347 13.74166 33058 ft 452 kts 175°
2026-05-05 20:49 39.65116 13.75343 33058 ft 452 kts 175°
2026-05-05 20:50 39.58888 13.76518 33052 ft 452 kts 175°
2026-05-05 20:50 39.52658 13.77690 33051 ft 452 kts 175°
2026-05-05 20:51 39.46434 13.78861 33057 ft 452 kts 175°
2026-05-05 20:51 39.40335 13.80890 33056 ft 458 kts 162°
2026-05-05 20:52 39.34503 13.84344 33058 ft 461 kts 158°
2026-05-05 20:52 39.28738 13.87900 33055 ft 461 kts 158°
2026-05-05 20:53 39.22929 13.91459 33055 ft 461 kts 158°
2026-05-05 20:53 39.17146 13.94991 33055 ft 462 kts 158°
2026-05-05 20:54 39.11317 13.98546 33050 ft 462 kts 158°
2026-05-05 20:54 39.05520 14.02075 33050 ft 463 kts 158°
2026-05-05 20:55 38.99687 14.05619 33053 ft 463 kts 158°
2026-05-05 20:55 38.93845 14.09162 33052 ft 464 kts 158°
2026-05-05 20:56 38.88029 14.12683 33055 ft 464 kts 158°
2026-05-05 20:56 38.82163 14.16228 33054 ft 464 kts 158°
2026-05-05 20:57 38.76336 14.19741 33052 ft 465 kts 158°
2026-05-05 20:57 38.70479 14.23264 33059 ft 465 kts 158°
2026-05-05 20:58 38.64640 14.26771 32860 ft 464 kts 158°
2026-05-05 20:58 38.61715 14.28526 32588 ft 463 kts 158°
2026-05-05 20:58 38.58794 14.30276 32339 ft 464 kts 158°
2026-05-05 20:59 38.55866 14.32028 32080 ft 465 kts 158°
2026-05-05 20:59 38.52923 14.33789 31809 ft 466 kts 158°
2026-05-05 20:59 38.50008 14.35530 31239 ft 468 kts 158°
2026-05-05 20:59 38.47040 14.37301 30371 ft 472 kts 158°
2026-05-05 21:00 38.44046 14.39086 29227 ft 478 kts 158°
2026-05-05 21:00 38.41037 14.40879 28380 ft 476 kts 158°
2026-05-05 21:00 38.38058 14.42655 27839 ft 467 kts 158°
2026-05-05 21:00 38.35149 14.44390 27552 ft 454 kts 158°
2026-05-05 21:01 38.32356 14.46054 27144 ft 444 kts 158°
2026-05-05 21:01 38.29555 14.47717 26433 ft 443 kts 158°
2026-05-05 21:01 38.26777 14.49366 25965 ft 436 kts 158°
2026-05-05 21:01 38.24032 14.50993 25301 ft 434 kts 158°
2026-05-05 21:02 38.21308 14.52607 24766 ft 430 kts 158°
2026-05-05 21:02 38.18599 14.54211 24147 ft 428 kts 158°
2026-05-05 21:02 38.15938 14.55785 23559 ft 426 kts 158°
2026-05-05 21:02 38.13261 14.57367 22956 ft 422 kts 158°
2026-05-05 21:03 38.10600 14.58940 22401 ft 416 kts 158°
2026-05-05 21:03 38.07989 14.60482 21859 ft 411 kts 158°
2026-05-05 21:03 38.05443 14.61985 21321 ft 406 kts 158°
2026-05-05 21:03 38.02886 14.63492 20770 ft 403 kts 158°
2026-05-05 21:04 38.00350 14.64985 20187 ft 400 kts 158°
2026-05-05 21:04 37.97820 14.66474 19582 ft 399 kts 158°
2026-05-05 21:04 37.95290 14.67918 18968 ft 397 kts 161°
2026-05-05 21:04 37.92703 14.68967 18521 ft 383 kts 169°
2026-05-05 21:05 37.90169 14.69560 18105 ft 367 kts 176°
2026-05-05 21:05 37.87664 14.69641 17563 ft 353 kts 192°
2026-05-05 21:05 37.85368 14.68653 17295 ft 349 kts 213°
2026-05-05 21:05 37.83514 14.66711 17033 ft 344 kts 233°
2026-05-05 21:06 37.82305 14.64135 16773 ft 340 kts 247°
2026-05-05 21:06 37.81420 14.61351 16494 ft 341 kts 250°
2026-05-05 21:06 37.80573 14.58589 16033 ft 339 kts 249°
2026-05-05 21:06 37.79667 14.55846 15565 ft 335 kts 247°
2026-05-05 21:07 37.78714 14.53160 15091 ft 332 kts 246°
2026-05-05 21:07 37.77735 14.50519 14641 ft 329 kts 245°
2026-05-05 21:07 37.76567 14.48055 14183 ft 327 kts 230°
2026-05-05 21:07 37.74799 14.46280 13790 ft 325 kts 209°
2026-05-05 21:08 37.72647 14.45446 13535 ft 335 kts 189°
2026-05-05 21:08 37.70289 14.45529 13278 ft 340 kts 178°
2026-05-05 21:08 37.67940 14.45793 13020 ft 338 kts 178°
2026-05-05 21:08 37.65645 14.46432 12754 ft 341 kts 159°
2026-05-05 21:09 37.63657 14.48107 12502 ft 348 kts 137°
2026-05-05 21:09 37.62277 14.50617 12255 ft 352 kts 115°
2026-05-05 21:09 37.61708 14.53612 12004 ft 352 kts 92°
2026-05-05 21:09 37.61964 14.56632 11763 ft 352 kts 78°
2026-05-05 21:10 37.62518 14.59652 11402 ft 349 kts 76°
2026-05-05 21:10 37.63011 14.62641 11091 ft 342 kts 79°
2026-05-05 21:10 37.63370 14.65536 10935 ft 326 kts 82°
2026-05-05 21:10 37.63626 14.68261 10774 ft 307 kts 84°
2026-05-05 21:11 37.63509 14.70855 10596 ft 288 kts 108°
2026-05-05 21:11 37.62591 14.72975 10446 ft 265 kts 136°
2026-05-05 21:11 37.61126 14.74228 10131 ft 250 kts 165°
2026-05-05 21:11 37.59435 14.74564 9629 ft 245 kts 179°
2026-05-05 21:12 37.57754 14.74732 9414 ft 243 kts 178°
2026-05-05 21:12 37.56082 14.74694 9201 ft 241 kts 198°
2026-05-05 21:12 37.54644 14.73702 8999 ft 235 kts 227°
2026-05-05 21:12 37.53816 14.71971 8793 ft 232 kts 256°
2026-05-05 21:13 37.53601 14.69955 8596 ft 233 kts 264°
2026-05-05 21:13 37.53441 14.67953 8399 ft 232 kts 264°
2026-05-05 21:13 37.53272 14.65929 8192 ft 232 kts 264°
2026-05-05 21:13 37.53098 14.63910 8025 ft 231 kts 263°
2026-05-05 21:14 37.52921 14.61898 7918 ft 232 kts 263°
2026-05-05 21:14 37.52741 14.59877 7799 ft 231 kts 263°
2026-05-05 21:14 37.52561 14.57862 7684 ft 232 kts 263°
2026-05-05 21:14 37.52382 14.55843 7563 ft 231 kts 263°
2026-05-05 21:15 37.52203 14.53849 7448 ft 231 kts 263°
2026-05-05 21:15 37.52024 14.51839 7333 ft 230 kts 263°
2026-05-05 21:15 37.51844 14.49827 7216 ft 230 kts 263°
2026-05-05 21:15 37.51664 14.47819 7095 ft 230 kts 262°
2026-05-05 21:16 37.51160 14.45928 6983 ft 229 kts 234°
2026-05-05 21:16 37.49982 14.44666 6833 ft 227 kts 204°
2026-05-05 21:16 37.48441 14.44363 6660 ft 228 kts 175°
2026-05-05 21:16 37.46850 14.44604 6536 ft 231 kts 174°
2026-05-05 21:17 37.45261 14.44844 6411 ft 229 kts 174°
2026-05-05 21:17 37.43680 14.45129 6284 ft 229 kts 163°
2026-05-05 21:17 37.42339 14.46179 6175 ft 231 kts 131°
2026-05-05 21:17 37.41638 14.47987 6051 ft 234 kts 99°
2026-05-05 21:18 37.41687 14.50031 5936 ft 235 kts 84°
2026-05-05 21:18 37.41894 14.52035 5816 ft 233 kts 83°
2026-05-05 21:18 37.42110 14.54056 5699 ft 232 kts 83°
2026-05-05 21:18 37.42313 14.56071 5576 ft 232 kts 84°
2026-05-05 21:19 37.42502 14.58084 5458 ft 230 kts 84°
2026-05-05 21:19 37.42682 14.60081 5347 ft 230 kts 84°
2026-05-05 21:19 37.42858 14.62075 5223 ft 229 kts 85°
2026-05-05 21:19 37.43030 14.64045 5110 ft 228 kts 85°
2026-05-05 21:20 37.43203 14.66030 5011 ft 227 kts 85°
2026-05-05 21:20 37.43396 14.68004 4890 ft 225 kts 83°
2026-05-05 21:20 37.43590 14.69931 4618 ft 224 kts 85°
2026-05-05 21:20 37.43754 14.71877 4303 ft 223 kts 85°
2026-05-05 21:21 37.43917 14.73810 4069 ft 223 kts 85°
2026-05-05 21:21 37.44080 14.75759 3835 ft 222 kts 84°
2026-05-05 21:21 37.44242 14.77679 3598 ft 221 kts 84°
2026-05-05 21:21 37.44404 14.79606 3390 ft 221 kts 84°
2026-05-05 21:22 37.44565 14.81525 3152 ft 220 kts 84°
2026-05-05 21:22 37.44726 14.83430 3003 ft 217 kts 84°
2026-05-05 21:22 37.44881 14.85281 2997 ft 211 kts 84°
2026-05-05 21:22 37.45029 14.87039 2916 ft 193 kts 84°
2026-05-05 21:23 37.45164 14.88647 2705 ft 177 kts 84°
2026-05-05 21:23 37.45289 14.90134 2459 ft 164 kts 84°
2026-05-05 21:23 37.45409 14.91556 2245 ft 166 kts 84°
2026-05-05 21:23 37.45529 14.92979 2017 ft 159 kts 84°
2026-05-05 21:24 37.45639 14.94298 1819 ft 143 kts 84°
2026-05-05 21:24 37.45739 14.95478 1637 ft 130 kts 84°
2026-05-05 21:24 37.45834 14.96612 1454 ft 132 kts 84°
2026-05-05 21:24 37.45930 14.97752 1287 ft 130 kts 83°
2026-05-05 21:25 37.46025 14.98886 1111 ft 130 kts 83°
2026-05-05 21:25 37.46119 15.00006 941 ft 128 kts 83°
2026-05-05 21:25 37.46196 15.01116 747 ft 127 kts 84°
2026-05-05 21:25 37.46292 15.02217 567 ft 125 kts 81°
2026-05-05 21:26 37.46385 15.03286 442 ft 124 kts 81°
2026-05-05 21:26 37.46485 15.04381 252 ft 125 kts 81°
2026-05-05 21:26 37.46575 15.05459 105 ft 124 kts 82°
2026-05-05 21:26 37.46666 15.06478 40 ft 97 kts 83°
2026-05-05 21:27 37.46719 15.06907 35 ft 16 kts 57°
2026-05-05 21:27 37.46900 15.06901 31 ft 21 kts 317°
2026-05-05 21:27 37.46921 15.06877 31 ft 6 kts 318°
2026-05-05 21:27 37.46943 15.06866 31 ft 0 kts